Wind_Speed
36 38 39 40 42 43 44 45 47 48 49 50 51 52 52 52 52 50 48 46 45 43 40 37 36 36 37 41 36 39 36 34 32 29 27 23 23 24 21 19 20 21 20 19 21 27 37
37 39 41 43 45 47 48 49 50 52 53 54 55 56 56 56 55 55 53 51 51 49 46 43 40 40 42 45 41 43 42 41 38 36 35 31 28 25 25 23 24 22 23 19 20 24 21
40 41 43 45 48 50 51 53 55 56 57 58 59 60 60 60 60 59 59 58 55 55 52 49 45 43 46 45 47 48 45 46 45 41 39 38 34 27 30 29 28 25 25 23 23 24 23
40 41 42 44 46 48 50 52 54 56 59 61 62 63 64 64 65 64 64 64 62 60 58 56 51 48 51 47 49 52 50 47 50 47 45 42 40 36 32 35 30 30 30 29 26 26 23
45 46 48 49 51 54 57 59 60 61 62 63 65 67 68 69 70 70 70 68 66 63 63 60 58 54 56 55 55 54 54 54 52 51 51 48 44 42 38 36 36 35 35 34 30 29 32
49 51 54 56 59 62 63 65 67 69 70 72 74 75 76 76 76 77 77 76 75 73 70 67 62 62 60 63 59 60 59 58 56 54 53 51 49 46 42 38 41 42 38 36 33 32 33
52 54 57 59 62 64 67 70 71 73 75 77 78 80 81 83 84 84 85 84 83 80 79 76 71 69 70 70 67 64 64 62 60 56 56 56 53 49 51 48 49 44 39 38 33 30 31
56 58 60 62 65 67 70 73 76 78 81 82 83 85 87 89 90 91 91 91 89 87 82 87 83 77 81 76 72 72 69 66 65 65 63 58 51 58 55 51 48 45 43 38 38 34 35
58 60 62 63 64 68 71 74 77 80 84 87 89 91 93 95 97 98 99 99 96 93 91 94 93 88 89 80 79 76 76 73 68 67 63 61 65 60 54 51 48 45 43 44 42 42 40
45 47 49 53 56 60 63 66 69 73 77 81 84 88 91 96 97 102 104 103 101 98 103 104 97 96 91 90 82 86 83 79 74 69 69 64 67 60 54 48 51 47 48 50 48 47 43
49 50 53 56 60 66 71 74 76 80 84 88 91 94 97 99 102 101 99 95 92 89 103 104 101 99 96 93 90 92 89 87 78 78 79 66 69 64 58 58 56 57 57 54 52 46 46
50 54 56 56 55 64 64 65 69 74 79 84 89 95 101 108 108 109 106 102 99 95 100 98 88 93 102 98 100 99 94 91 89 85 79 76 76 70 63 64 58 65 62 56 51 45 41
43 46 51 50 57 58 56 60 62 66 74 81 86 93 101 106 106 102 99 96 95 93 97 103 91 91 90 97 106 109 100 96 91 85 77 80 76 70 68 66 65 65 62 55 48 43 38
52 54 57 61 63 64 65 65 67 73 78 83 88 92 98 97 93 88 85 83 83 82 88 94 80 90 99 92 95 105 109 100 94 87 87 81 78 70 71 67 66 65 64 58 52 47 50
56 61 65 70 71 71 70 71 74 79 81 85 89 85 83 79 76 73 72 71 71 68 73 86 82 84 89 92 94 92 96 102 96 95 89 85 77 82 80 74 69 65 57 57 57 57 58
61 66 72 73 73 75 76 75 75 80 83 84 80 71 65 65 63 65 65 63 63 60 69 75 75 84 89 93 92 94 92 96 106 106 102 92 95 91 84 84 75 65 66 60 55 53 46
69 73 74 74 78 78 80 78 80 86 89 81 70 64 52 52 51 53 56 59 58 56 60 61 67 75 87 92 96 100 96 95 101 107 106 99 96 90 93 83 67 69 63 58 59 54 51
70 74 76 77 80 81 83 86 87 89 88 79 68 59 52 45 46 45 48 49 49 52 54 52 57 64 79 89 98 96 96 98 101 102 104 104 95 97 88 73 73 72 68 65 57 55 53
76 74 80 80 83 86 88 93 92 91 88 74 65 57 47 45 41 40 40 41 41 41 45 52 51 58 71 82 88 97 98 100 101 101 100 103 100 95 88 88 84 73 66 61 61 62 55
76 80 80 83 86 88 93 95 95 92 85 72 61 51 51 43 39 36 36 35 35 30 35 41 49 55 64 71 82 89 97 99 101 101 99 94 96 93 86 76 77 71 66 65 64 59 58
80 81 81 86 89 94 98 96 98 94 80 68 56 50 43 42 43 38 35 32 31 25 27 34 44 48 55 64 71 84 96 100 101 99 99 92 88 89 84 80 75 76 75 69 61 60 57
81 82 83 87 90 98 99 97 98 89 74 60 49 45 45 43 40 38 35 31 27 24 24 25 37 42 48 57 65 78 91 101 101 98 98 92 91 89 89 86 84 82 77 70 67 65 63
85 83 83 87 92 99 98 98 94 80 64 50 43 44 41 41 42 39 35 30 23 19 20 20 29 35 43 53 61 71 88 99 101 98 96 93 92 84 87 90 92 81 73 71 71 69 64
84 81 84 89 93 97 94 96 83 67 49 39 39 38 38 42 41 40 36 30 25 17 15 14 22 31 38 47 52 60 81 90 97 97 92 93 93 85 94 97 89 81 80 74 69 72 69
83 82 85 89 92 92 91 83 65 48 37 33 34 33 39 44 45 42 39 34 26 19 13 9 15 24 31 38 51 61 74 88 93 92 91 94 93 92 98 96 85 86 86 82 81 78 75
85 83 85 88 92 87 82 63 47 37 29 30 32 33 40 39 39 41 40 38 32 23 15 5 8 18 29 40 51 59 71 84 87 91 93 96 94 98 96 91 94 98 91 85 86 83 80
82 80 83 87 84 84 71 50 40 29 25 26 29 36 37 37 38 40 44 43 34 26 18 9 2 10 22 34 45 52 65 77 83 92 94 98 98 100 97 97 99 95 93 89 93 92 86
70 78 81 82 81 76 59 44 33 25 21 24 27 34 32 35 37 43 49 47 41 34 25 17 9 7 17 27 35 45 56 67 76 88 98 103 103 102 100 99 97 101 100 97 94 95 91
70 76 77 77 78 69 51 41 32 20 18 23 25 31 30 32 32 39 42 48 49 42 34 24 15 9 12 21 30 34 44 57 70 84 98 104 105 103 107 110 105 106 103 99 99 97 93
Wind_Direction
252 254 256 257 257 258 259 260 260 260 260 260 260 261 262 264 264 263 262 261 261 261 258 256 253 249 242 241 238 234 230 228 230 229 225 230 237 240 237 234 233 227 232 239 233 231 247
258 259 261 262 263 263 263 263 263 263 264 264 264 264 264 264 264 264 263 262 261 260 257 254 252 249 246 241 241 235 238 236 233 232 233 233 239 250 250 247 245 242 240 232 230 236 242
264 266 268 269 269 269 268 268 267 267 266 266 267 266 265 265 264 264 263 262 261 260 258 254 252 249 246 242 240 239 236 238 239 234 237 236 237 245 250 251 250 254 252 245 237 244 251
272 272 272 273 274 274 274 274 273 273 271 269 269 268 267 267 266 266 265 264 260 259 258 256 252 248 248 239 240 239 233 238 237 238 237 239 238 240 246 251 255 258 254 250 252 256 257
281 280 279 279 279 277 276 276 275 274 273 272 271 270 270 269 268 266 265 264 262 260 257 254 254 250 246 244 236 237 241 236 238 238 236 238 241 245 245 251 254 255 253 251 251 257 253
280 280 280 280 279 278 277 276 275 274 273 272 271 270 269 268 267 266 265 264 263 262 259 255 252 251 250 246 240 240 237 237 238 237 239 237 239 244 250 249 243 244 246 250 250 256 263
283 282 281 281 280 279 277 276 275 275 274 274 272 271 269 268 267 266 265 264 262 260 259 258 253 251 248 248 243 241 244 241 239 240 243 239 233 242 241 245 249 248 249 247 250 255 260
284 283 282 280 280 279 279 278 278 277 276 274 272 271 270 268 266 264 262 261 259 258 257 256 253 249 248 245 246 244 243 243 241 239 238 239 243 240 241 243 246 246 248 242 245 252 257
288 287 285 283 281 280 279 278 276 275 275 274 273 271 269 267 266 264 262 260 258 257 254 252 252 249 249 246 245 245 244 243 241 241 239 238 238 242 242 240 239 238 237 239 239 244 247
296 294 292 288 287 284 282 279 277 277 277 276 276 274 273 272 269 268 266 264 261 258 255 253 251 251 248 249 246 245 242 240 239 238 237 233 237 237 236 237 235 236 236 238 239 244 249
297 295 294 294 294 292 289 288 285 282 282 280 277 275 274 273 273 272 271 268 266 262 260 256 252 250 249 246 241 244 241 241 238 236 235 233 233 233 232 231 230 233 233 236 240 242 250
306 303 303 303 304 302 298 297 293 290 287 284 282 281 279 278 276 276 276 275 273 268 262 261 256 252 248 244 243 240 240 239 236 236 236 234 235 234 233 231 231 234 236 239 243 246 253
315 314 316 304 317 309 308 304 300 298 295 292 290 286 284 283 284 284 281 277 272 268 264 260 255 250 248 243 239 240 238 236 238 237 239 238 238 236 236 236 235 238 241 243 248 252 244
328 327 327 330 325 323 319 317 311 304 303 300 295 291 290 289 287 283 280 275 268 262 257 257 248 246 244 240 239 236 237 234 235 234 233 233 234 236 237 235 233 233 235 235 234 227 224
330 329 330 331 327 324 324 320 315 310 308 306 302 299 296 292 289 286 280 274 266 259 253 249 244 240 238 238 236 235 232 233 232 233 232 232 232 232 229 227 229 230 232 231 227 227 228
331 332 333 332 331 327 328 321 318 319 317 313 310 306 303 298 293 287 283 278 271 262 254 248 242 236 234 235 233 232 228 228 228 228 230 222 223 225 225 225 223 222 224 224 225 229 231
329 331 332 331 332 331 327 325 327 327 324 320 317 311 308 299 291 284 280 278 274 266 258 250 243 234 232 232 229 228 223 222 225 226 227 226 228 225 226 223 224 225 224 224 228 227 228
330 333 332 333 333 331 330 331 331 330 329 327 324 319 318 312 308 298 286 278 274 267 264 253 242 233 230 228 226 225 222 217 222 223 223 225 226 229 229 226 224 223 221 223 226 228 229
331 332 331 333 334 335 335 333 332 334 332 331 330 326 325 322 318 311 301 291 279 269 260 253 242 232 228 228 223 221 220 218 217 221 220 220 222 225 226 224 223 225 224 228 226 226 226
332 333 331 333 336 339 335 335 334 336 335 335 334 335 336 332 326 320 311 303 293 276 260 250 242 231 228 224 220 216 217 217 213 217 217 219 220 223 226 228 227 224 227 228 226 227 229
330 332 332 335 337 338 336 336 336 336 336 336 335 338 341 340 334 329 319 310 301 286 256 247 242 233 228 221 219 213 212 214 213 211 215 213 216 218 220 224 226 223 220 223 226 226 226
332 333 336 335 336 337 336 336 335 335 335 336 338 346 346 345 342 337 329 321 312 294 271 242 241 235 228 220 216 209 212 210 211 208 211 208 211 210 215 218 220 223 223 217 219 221 220
333 335 336 335 336 336 336 335 333 332 335 337 346 349 350 354 352 347 342 334 323 304 278 248 239 229 220 217 215 210 209 209 208 206 207 206 208 205 211 216 221 221 221 224 219 220 221
333 335 333 335 337 334 334 332 331 331 337 344 351 350 0 3 2 1 356 350 340 328 298 261 233 225 216 212 210 207 209 210 208 204 201 203 206 202 209 213 217 218 218 221 227 221 222
332 333 332 335 334 335 333 331 330 333 343 351 355 0 12 11 12 14 11 3 359 352 332 277 225 221 209 208 205 204 205 211 208 204 199 202 202 203 210 210 210 217 217 215 216 221 224
330 333 333 335 334 334 333 334 334 341 354 357 1 14 19 17 18 20 24 19 15 9 1 327 214 207 204 199 202 202 200 208 207 202 198 201 201 205 210 207 207 214 214 214 216 217 219
331 329 333 332 334 336 339 336 336 352 1 10 20 24 24 20 22 27 32 31 26 24 19 18 157 183 196 205 200 201 201 204 204 200 197 200 201 204 207 208 209 212 214 213 214 216 217
330 329 332 334 337 341 344 342 351 360 16 25 23 27 22 12 24 39 42 37 35 34 32 34 42 133 176 191 204 202 201 201 202 200 196 197 201 203 205 209 209 210 213 214 216 219 219
327 332 333 336 341 344 345 351 358 9 29 38 26 31 18 16 41 46 47 47 45 46 43 46 52 92 156 177 194 203 202 200 200 200 196 199 202 205 205 208 208 210 213 213 216 217 220
Height
10927 10926 10924 10923 10923 10922 10922 10921 10921 10920 10920 10920 10920 10919 10919 10919 10920 10922 10924 10926 10928 10930 10933 10936 10939 10941 10943 10942 10948 10948 10952 10954 10955 10958 10959 10960 10961 10964 10968 10970 10970 10971 10972 10973 10973 10976 10975
10920 10918 10917 10916 10915 10915 10914 10913 10911 10911 10910 10910 10909 10908 10908 10908 10908 10910 10912 10915 10916 10918 10922 10926 10929 10931 10932 10931 10938 10940 10941 10945 10948 10950 10952 10954 10955 10958 10960 10964 10964 10967 10967 10969 10969 10970 10972
10913 10911 10910 10908 10906 10905 10904 10902 10901 10900 10899 10897 10895 10894 10895 10895 10895 10897 10898 10900 10904 10905 10909 10914 10918 10920 10919 10922 10925 10927 10932 10934 10936 10941 10943 10946 10950 10951 10953 10955 10958 10961 10962 10965 10967 10967 10968
10905 10903 10900 10898 10896 10895 10892 10890 10888 10886 10885 10882 10881 10880 10879 10879 10879 10880 10881 10883 10888 10891 10894 10898 10905 10909 10904 10914 10913 10913 10921 10924 10926 10930 10934 10938 10942 10944 10947 10948 10953 10955 10957 10958 10959 10962 10965
10897 10894 10891 10889 10886 10882 10879 10876 10873 10871 10869 10867 10864 10863 10861 10861 10861 10862 10863 10866 10869 10874 10879 10884 10888 10893 10891 10896 10899 10904 10906 10910 10914 10919 10924 10928 10933 10934 10941 10943 10946 10949 10949 10953 10956 10955 10959
10886 10884 10881 10877 10873 10869 10865 10861 10857 10853 10851 10848 10846 10844 10842 10842 10842 10841 10843 10846 10849 10855 10859 10865 10874 10874 10877 10875 10883 10887 10892 10896 10902 10908 10913 10918 10923 10928 10932 10935 10933 10937 10943 10946 10950 10950 10950
10874 10871 10867 10863 10857 10853 10847 10842 10839 10834 10832 10829 10826 10823 10821 10820 10819 10820 10818 10822 10826 10833 10838 10841 10849 10853 10854 10854 10865 10874 10875 10883 10889 10897 10898 10904 10916 10917 10913 10921 10922 10932 10938 10941 10943 10945 10945
10861 10857 10852 10847 10842 10836 10831 10825 10819 10814 10808 10804 10800 10796 10793 10790 10789 10789 10791 10791 10797 10805 10818 10805 10816 10830 10822 10834 10849 10852 10858 10866 10871 10875 10882 10896 10902 10895 10906 10912 10917 10924 10929 10934 10936 10939 10938
10846 10841 10836 10831 10824 10818 10811 10805 10797 10790 10784 10778 10773 10767 10764 10761 10757 10757 10758 10761 10766 10777 10780 10771 10781 10795 10796 10823 10825 10832 10839 10843 10855 10857 10872 10880 10869 10887 10897 10901 10908 10913 10919 10921 10926 10927 10931
10835 10828 10822 10816 10809 10802 10794 10786 10778 10770 10762 10755 10749 10740 10738 10729 10730 10724 10724 10728 10736 10747 10735 10739 10761 10767 10783 10795 10814 10801 10812 10820 10833 10846 10847 10858 10858 10875 10882 10891 10895 10901 10904 10907 10914 10920 10927
10823 10816 10809 10802 10794 10784 10776 10770 10760 10750 10741 10731 10722 10713 10702 10701 10692 10690 10690 10692 10701 10711 10695 10714 10734 10744 10753 10764 10773 10773 10786 10796 10815 10818 10822 10848 10843 10855 10867 10873 10879 10884 10886 10895 10902 10912 10915
10811 10803 10796 10788 10779 10768 10759 10748 10737 10725 10714 10703 10693 10682 10669 10658 10657 10655 10654 10654 10657 10666 10661 10673 10698 10711 10716 10736 10737 10737 10755 10768 10779 10791 10810 10821 10824 10839 10854 10856 10868 10865 10874 10885 10894 10902 10910
10801 10793 10783 10774 10763 10752 10741 10728 10716 10705 10691 10678 10665 10650 10637 10625 10619 10615 10612 10611 10609 10616 10617 10623 10658 10672 10678 10680 10698 10702 10729 10742 10763 10779 10801 10800 10814 10826 10835 10844 10853 10856 10866 10877 10885 10895 10903
10786 10777 10768 10757 10746 10735 10722 10709 10695 10682 10669 10652 10635 10621 10602 10590 10582 10575 10569 10566 10565 10574 10579 10577 10614 10626 10634 10651 10657 10672 10694 10721 10741 10762 10764 10784 10795 10813 10817 10828 10835 10842 10848 10862 10868 10877 10874
10773 10764 10753 10741 10728 10715 10703 10690 10673 10657 10642 10624 10601 10590 10572 10557 10548 10540 10533 10528 10527 10538 10540 10538 10568 10581 10596 10613 10629 10645 10674 10698 10723 10728 10748 10759 10780 10776 10785 10800 10811 10825 10842 10845 10851 10857 10863
10761 10751 10739 10725 10712 10698 10683 10670 10654 10632 10616 10595 10574 10558 10546 10529 10521 10511 10504 10501 10499 10506 10505 10511 10529 10544 10558 10569 10598 10613 10639 10663 10672 10685 10707 10729 10724 10741 10762 10768 10790 10812 10814 10828 10842 10851 10864
10748 10736 10723 10709 10695 10680 10665 10647 10632 10613 10585 10565 10547 10530 10525 10509 10500 10491 10484 10478 10474 10475 10477 10486 10498 10511 10522 10536 10559 10574 10602 10628 10641 10659 10680 10705 10722 10734 10735 10757 10792 10798 10811 10822 10828 10838 10847
10734 10721 10709 10695 10680 10664 10644 10625 10610 10591 10564 10541 10522 10510 10501 10491 10479 10471 10464 10460 10457 10453 10455 10462 10468 10480 10491 10498 10518 10547 10570 10594 10614 10633 10661 10679 10710 10711 10736 10772 10774 10780 10794 10802 10820 10827 10834
10721 10707 10693 10679 10663 10644 10623 10606 10587 10570 10544 10528 10509 10492 10485 10475 10466 10455 10445 10439 10437 10437 10436 10437 10445 10455 10459 10471 10498 10520 10544 10567 10592 10612 10636 10657 10685 10701 10725 10733 10747 10771 10788 10797 10804 10807 10821
10706 10693 10678 10663 10647 10626 10609 10590 10568 10551 10529 10512 10498 10487 10471 10461 10452 10443 10433 10425 10419 10419 10417 10418 10423 10430 10439 10454 10472 10498 10522 10544 10569 10591 10615 10643 10670 10694 10714 10743 10751 10764 10778 10781 10790 10802 10808
10694 10679 10663 10647 10628 10611 10594 10574 10555 10535 10519 10503 10489 10475 10466 10455 10438 10430 10423 10416 10407 10404 10402 10404 10405 10414 10424 10438 10454 10474 10492 10521 10546 10573 10594 10629 10659 10684 10704 10721 10736 10743 10751 10765 10784 10790 10799
10681 10666 10649 10633 10616 10597 10579 10560 10543 10525 10509 10495 10483 10473 10458 10446 10435 10424 10412 10404 10398 10394 10390 10393 10393 10402 10412 10424 10440 10459 10482 10496 10522 10557 10578 10615 10628 10659 10681 10699 10709 10720 10739 10756 10766 10774 10780
10666 10653 10638 10623 10605 10585 10566 10548 10531 10513 10502 10490 10478 10467 10457 10445 10431 10418 10406 10397 10391 10385 10382 10382 10384 10390 10399 10410 10426 10444 10460 10481 10504 10537 10561 10599 10615 10649 10672 10679 10686 10718 10737 10748 10757 10761 10773
10655 10642 10628 10612 10595 10576 10556 10538 10520 10506 10496 10485 10476 10466 10455 10443 10430 10417 10403 10394 10386 10380 10376 10375 10375 10380 10391 10401 10418 10443 10457 10468 10493 10522 10555 10584 10605 10635 10643 10651 10680 10710 10719 10734 10750 10753 10760
10645 10633 10618 10602 10586 10567 10549 10529 10512 10500 10491 10482 10475 10466 10454 10443 10430 10416 10403 10392 10385 10377 10373 10370 10371 10376 10387 10400 10410 10425 10448 10460 10484 10517 10546 10572 10598 10615 10617 10640 10677 10684 10694 10710 10721 10731 10738
10635 10622 10608 10593 10576 10556 10537 10519 10505 10497 10487 10481 10475 10465 10455 10446 10434 10421 10406 10394 10386 10379 10373 10368 10369 10374 10382 10388 10399 10415 10434 10448 10475 10504 10532 10556 10583 10590 10606 10637 10647 10647 10673 10698 10703 10713 10725
10625 10612 10599 10584 10565 10546 10526 10511 10502 10492 10486 10481 10475 10466 10458 10448 10437 10425 10411 10400 10390 10383 10376 10371 10370 10376 10381 10388 10398 10413 10427 10441 10461 10489 10521 10545 10563 10572 10594 10609 10622 10648 10660 10677 10680 10689 10708
10618 10604 10591 10576 10559 10538 10521 10509 10500 10491 10487 10482 10477 10469 10462 10453 10443 10429 10418 10408 10398 10388 10382 10377 10376 10379 10384 10390 10399 10407 10421 10438 10455 10478 10496 10518 10541 10561 10581 10596 10614 10624 10634 10651 10666 10675 10690
10608 10597 10582 10567 10552 10534 10519 10508 10499 10492 10488 10485 10479 10473 10468 10460 10450 10437 10426 10416 10406 10396 10390 10386 10383 10385 10387 10393 10400 10411 10422 10436 10450 10468 10488 10514 10526 10547 10556 10561 10588 10601 10620 10638 10646 10661 10678